Theta_e
349 350 352 352 350 352 352 353 349 346 343 350 348 349 348 345 344 347 343 346 348 348 349 350 350 348 352 352 351 351 348 344 344 343 339 340 343 350
350 355 355 355 354 353 355 355 355 351 346 352 350 351 346 346 347 344 349 346 346 351 352 353 352 352 352 352 350 351 348 345 344 342 339 338 344 349
348 352 356 355 355 354 354 355 355 354 351 353 351 350 352 350 347 347 350 347 352 350 349 347 348 350 350 352 350 350 347 347 344 341 338 338 344 351
352 349 348 349 350 356 355 356 353 352 352 352 351 352 353 351 347 350 349 348 347 346 344 341 344 350 351 350 349 350 347 348 344 340 338 341 346 349
355 355 354 356 356 357 356 355 354 354 354 353 353 352 350 347 348 348 347 348 348 347 339 342 345 348 351 350 350 349 346 348 344 339 340 343 346 347
353 352 352 354 354 351 355 354 354 355 355 352 353 352 350 349 348 348 348 349 349 345 338 344 347 345 349 349 349 347 346 348 343 338 339 342 344 344
353 353 353 350 349 352 354 355 355 354 354 352 352 351 350 349 346 347 349 350 349 341 341 343 344 346 346 346 349 349 345 347 341 338 339 341 342 343
355 354 354 354 354 356 355 356 354 353 353 352 352 349 349 348 343 345 349 352 342 342 344 344 344 346 348 348 349 350 347 345 340 338 338 339 341 341
356 358 358 358 357 358 355 353 352 351 351 352 351 351 349 347 347 340 349 350 345 344 346 345 347 348 347 348 349 350 348 343 340 337 336 337 336 337
358 358 357 357 356 354 353 352 351 352 351 352 354 350 346 350 347 343 349 349 345 346 345 347 347 346 345 347 348 347 344 342 339 336 335 336 335 334
356 356 355 354 352 352 352 352 351 351 349 348 348 349 349 349 345 346 350 346 344 346 345 344 346 345 345 344 344 344 341 339 337 336 335 336 335 333
352 352 351 349 341 337 349 350 350 351 349 349 348 349 348 348 348 350 350 345 345 343 345 343 343 344 342 344 343 343 341 339 336 335 334 334 335 333
343 343 344 339 338 338 340 347 350 350 346 347 349 349 349 350 350 350 346 345 346 345 343 342 342 342 344 344 343 343 341 338 337 335 333 332 333 332
345 340 342 345 344 346 343 345 348 347 348 348 349 349 349 348 348 346 346 347 347 343 342 342 342 340 341 342 344 342 340 338 336 335 334 333 332 332
345 345 342 344 344 346 348 345 342 343 342 346 346 346 346 344 345 343 348 346 343 342 343 343 342 338 337 337 339 340 341 340 339 337 333 333 332 332
338 338 338 340 340 340 340 339 340 341 345 345 344 341 340 340 341 345 346 342 341 343 343 344 340 337 338 338 338 338 339 338 338 337 335 334 332 331
336 336 336 337 337 337 338 339 339 339 339 339 339 339 339 341 343 344 343 341 339 341 343 343 340 339 338 336 338 337 339 336 334 334 336 336 336 335
334 334 336 336 336 336 336 337 338 338 335 338 338 338 336 338 339 339 339 336 336 338 339 341 340 339 336 335 338 335 332 332 329 328 331 333 334 334
335 335 335 336 336 336 336 336 334 332 330 329 330 330 329 329 330 328 331 331 330 330 333 334 337 332 327 327 330 330 329 327 324 324 326 327 328 328
334 334 329 328 331 330 326 325 325 327 327 327 325 325 326 327 325 321 321 322 323 322 322 330 331 333 326 321 325 328 328 326 325 323 323 323 323 324
330 331 329 327 326 328 330 330 330 331 330 327 324 324 324 324 324 323 322 322 322 321 321 323 323 321 319 325 326 325 326 327 326 323 321 321 321 320
331 331 330 327 327 328 328 328 327 327 328 328 326 323 323 319 319 319 321 322 322 318 319 320 315 315 324 325 323 319 316 322 327 324 321 318 319 318
319 319 326 329 329 327 324 325 324 324 323 321 318 320 318 316 316 316 317 318 317 318 316 313 312 312 312 312 312 314 320 321 322 320 317 315 315 316
Wind_Speed
26 24 23 22 20 19 18 14 7 3 3 13 16 16 11 15 17 16 18 20 22 26 25 26 26 24 21 19 17 15 15 14 14 11 11 11 9 16
29 26 26 24 23 23 21 19 15 12 3 13 15 15 18 18 16 19 19 20 23 21 22 20 20 21 22 21 16 14 13 13 13 10 10 10 9 15
34 32 30 27 27 27 24 23 21 16 10 21 21 23 23 19 20 19 17 21 18 23 25 26 25 23 21 20 17 13 11 12 11 10 10 9 8 15
39 35 37 35 33 30 26 26 26 25 22 20 23 18 20 21 22 20 21 19 23 24 24 22 21 17 16 17 16 12 11 11 10 8 7 6 12 14
41 38 35 33 30 30 31 31 30 28 25 22 24 24 26 24 20 21 21 21 21 22 22 18 16 17 17 15 12 10 11 10 7 5 2 6 13 15
42 41 41 41 41 36 33 34 33 29 28 26 27 29 28 24 19 20 21 22 25 26 17 16 18 14 14 11 12 12 13 10 7 5 5 9 12 16
41 41 40 40 39 39 36 34 32 32 31 27 25 25 24 24 22 18 18 21 24 17 17 24 21 16 15 16 17 18 12 10 9 8 9 11 14 16
36 41 42 40 39 38 36 34 31 31 32 25 24 21 28 28 23 19 18 13 5 13 22 27 22 16 13 12 16 18 11 12 10 10 12 14 16 18
39 37 40 41 41 40 38 37 37 35 35 35 31 30 28 32 29 20 18 17 17 19 17 18 15 13 12 10 8 7 10 10 9 10 13 16 15 17
38 42 43 42 41 37 35 36 36 36 37 38 37 36 38 32 33 26 20 17 16 16 8 5 11 11 9 6 5 4 6 8 7 9 13 17 17 18
37 32 35 36 38 37 35 35 36 38 36 36 34 32 33 32 23 23 19 15 6 4 5 4 5 8 5 0 2 2 5 6 5 7 11 17 18 19
26 24 22 14 18 30 32 35 30 37 27 31 38 32 28 29 26 25 24 20 10 4 7 3 4 3 3 4 1 1 3 5 6 6 11 16 19 21
21 23 28 31 39 30 31 35 35 37 36 39 39 35 31 29 29 28 25 24 16 12 8 6 4 4 3 3 3 2 3 3 5 7 9 13 16 17
33 34 28 28 23 27 30 40 34 35 36 30 30 27 25 29 27 24 25 23 17 11 7 9 4 5 2 3 3 1 4 5 6 6 10 12 15 17
25 21 10 17 26 26 29 19 16 20 25 26 22 25 29 28 27 22 20 18 14 14 12 8 8 6 4 3 3 3 2 4 8 9 8 11 13 16
13 7 3 2 2 5 10 8 11 13 16 17 17 17 12 14 19 20 23 17 14 13 12 11 10 9 7 4 3 3 4 2 2 6 9 11 13 15
5 3 5 8 8 6 5 5 6 6 9 8 10 11 12 10 15 20 17 16 10 9 13 14 10 6 4 2 2 3 4 5 1 1 4 9 11 13
3 3 6 8 10 9 9 7 5 2 4 6 5 4 3 7 8 16 19 16 12 10 9 15 13 9 5 3 5 7 2 2 3 4 4 4 7 8
8 7 6 8 11 11 10 8 12 10 9 11 14 12 16 17 16 14 7 17 15 10 8 7 10 4 2 0 1 3 3 2 2 3 3 2 3 5
6 8 9 10 9 10 12 12 11 9 7 7 9 16 17 18 12 10 13 12 13 9 7 2 7 6 3 3 2 2 5 5 3 3 3 4 4 5
6 7 5 3 3 2 3 4 4 6 6 9 7 7 11 14 13 11 8 7 9 10 11 12 12 10 9 7 3 4 6 8 7 3 4 5 6 4
5 2 2 3 3 3 2 3 3 3 4 8 7 9 10 8 8 10 13 15 18 13 10 14 11 9 8 6 4 3 6 6 8 7 5 3 3 3
17 18 11 1 1 3 4 4 2 0 1 1 2 6 6 4 2 1 2 4 5 10 16 13 10 6 3 3 2 3 3 6 9 6 4 3 3 3
Wind_Direction
248 254 260 265 265 270 275 275 251 254 279 316 323 315 309 317 323 327 327 325 324 326 324 321 317 313 315 310 304 289 294 303 305 298 297 289 244 207
251 251 253 256 259 261 263 270 264 247 243 290 296 304 309 306 316 326 330 331 328 331 340 330 322 322 308 303 301 286 289 305 305 298 295 280 251 213
248 247 250 253 257 258 259 258 256 250 247 283 289 293 293 300 315 321 324 330 329 327 327 320 311 308 317 293 292 273 279 302 299 297 298 270 227 197
248 248 250 253 254 253 257 253 252 265 265 272 286 287 290 299 312 317 320 316 315 320 325 325 321 315 302 289 287 257 279 297 291 297 302 226 181 185
244 246 248 248 252 255 253 254 257 261 260 263 272 279 285 294 301 310 316 316 320 325 331 331 334 306 298 298 259 259 288 289 278 282 272 172 178 184
246 249 247 248 252 256 256 259 259 256 255 263 268 273 279 287 294 305 315 320 321 328 333 337 332 319 311 288 248 265 283 276 247 228 185 167 171 179
243 249 250 250 251 253 258 258 256 253 254 261 264 269 269 277 284 294 301 315 317 324 330 328 335 328 310 283 269 284 255 253 224 208 189 171 168 170
240 245 251 252 254 254 255 253 254 254 253 248 252 247 259 265 275 286 298 306 315 322 327 321 335 330 318 285 271 272 243 231 216 208 196 186 182 182
237 240 248 253 253 255 258 256 257 256 257 258 250 252 252 263 266 278 280 289 283 308 322 315 341 337 330 320 284 223 216 221 220 211 198 191 189 191
241 247 251 256 259 263 264 262 260 255 252 253 253 260 264 261 266 268 274 280 283 302 304 274 324 341 1 32 101 171 219 238 224 214 200 194 194 197
249 252 258 267 276 274 270 263 265 261 257 257 257 264 262 264 265 262 262 254 273 257 282 291 299 329 334 310 144 225 250 245 229 216 194 196 198 201
255 258 249 227 325 317 289 270 250 257 261 271 257 254 257 259 256 249 257 236 218 254 207 267 285 353 303 257 250 226 253 250 234 211 199 201 203 204
257 258 255 258 256 260 271 262 257 262 259 254 262 257 257 251 254 246 235 231 222 227 240 235 237 306 244 284 273 248 231 235 221 210 200 204 210 216
246 253 264 266 269 256 245 251 259 265 256 241 248 247 254 255 242 233 236 225 226 234 218 220 219 209 254 296 276 279 248 229 217 209 205 208 215 224
246 259 261 271 262 259 258 242 258 294 239 199 223 247 248 256 248 230 214 210 221 227 229 215 194 185 207 225 294 311 280 256 242 231 226 225 230 230
168 204 268 225 202 207 257 265 273 255 230 217 224 237 245 239 240 222 200 202 207 208 212 210 188 168 161 188 214 277 270 286 324 244 252 252 249 245
174 140 181 223 246 252 249 246 244 243 243 232 230 236 239 251 242 212 209 187 180 184 189 189 185 189 196 237 174 122 99 140 68 301 261 266 266 266
187 209 228 236 240 235 240 232 230 195 142 200 200 207 226 224 237 221 187 164 153 152 184 185 180 178 174 107 173 177 169 237 303 315 297 258 280 274
205 210 216 230 240 222 225 179 129 133 123 116 114 100 91 83 89 52 60 125 119 117 127 190 187 175 80 324 185 209 259 279 335 320 307 285 277 284
121 134 131 131 132 131 128 133 138 143 122 127 126 116 112 109 94 76 68 41 45 35 43 172 193 162 153 186 228 230 242 253 268 313 313 314 311 309
140 147 154 159 138 139 148 177 168 187 204 192 175 179 176 169 166 166 159 150 186 188 190 183 187 183 193 202 215 241 267 258 239 292 314 327 331 332
141 113 274 257 265 259 251 230 209 197 196 201 200 205 192 190 187 189 205 199 201 197 187 164 164 167 175 205 243 260 267 249 225 239 248 292 305 330
64 57 62 105 248 324 311 265 243 65 295 321 284 245 219 182 167 251 129 186 180 168 164 162 166 170 175 186 281 268 201 191 197 199 227 275 313 289